Ana Sayfa
METAR-TAF:

METAR-TAF

Havaalanları :

Front Royal, Virginia, Amerika Birleşik Devletleri

Enlem: 38-55-03N, Boylam: 078-15-12W, yükseklik: 216 m

Güncel hava durumu gözlemi

Rapor saat 05:55 UTC de 17 dakika önce yapıldı.
Sakin rüzgar
Sıcaklık 0°C
Nem 55%
Basınç 1035 hPa
Görüş mesafesi: 16.1 km
4800 ft yükseklikte parçalı çok bulutlu

METAR: KFRR 120555Z AUTO 00000KT 10SM BKN048 00/M08 A3056 RMK AO1

Saat: 01:12 (06:12 UTC)


TAF: eksik

4.000'den fazla havaalanı için hava durumu gözlemleri ve tahminleri (METAR ve TAF raporları).

Kullanılabilir istasyonlar harita üzerinde sarı ve kırmızı noktalarla gösterilir.

İstasyonun adını görmek için fareyi noktanın üzerinde gezdirin.

Sonrasında hava gözlem ve tahminlerini görmek için tıklayın.

Haritayı değiştirmek için: yaklaştırmak için siyah artı işaretli yeşil düğmeye ve uzaklaştırmak için de eksi işaretli düğmeye hızla tıklayın; bitişik haritalar için yeşil okları kullanın.


METAR-TAF: